This demonstration page uses our WeatherBlox Daily Observations layout. Learn more.

Left ArrowRight Arrow

44.8408, -93.29828

Hourly Observations for June 23, 2017

Temp ( °F °C ) Dew Point ( °F °C ) Humidity (%) Winds ( mph kmh ) Pressure ( in mb ) Visibility ( mi km ) Precip ( " mm )
12:53 am 00:53 Clear 63 17.2 58 14.4 84 84 SSW 5 7 29.74 1007 7 11 0.00 0.00
1:53 am 01:53 Clear 61 16.1 57 13.9 87 87 Calm 29.73 1007 8 13 0.00 0.00
2:53 am 02:53 Clear 60 15.6 55 12.8 84 84 Calm 29.72 1007 8 13 0.00 0.00
3:53 am 03:53 Clear 60 15.6 55 12.8 84 84 SW 6 9 29.72 1006 10 16 0.00 0.00
4:53 am 04:53 Clear 59 15 54 12.2 83 83 WSW 5 7 29.70 1006 10 16 0.00 0.00
5:53 am 05:53 Sunny 59 15 53 11.7 81 81 W 7 11 29.72 1006 10 16 0.00 0.00
6:53 am 06:53 Sunny 62 16.7 51 10.6 67 67 WNW 7 11 29.74 1007 10 16 0.00 0.00
7:53 am 07:53 Sunny 63 17.2 49 9.4 60 60 NNW 16 26 29.75 1008 10 16 0.00 0.00
8:53 am 08:53 Mostly Sunny 65 18.3 50 10 59 59 WNW 17 28 29.77 1008 10 16 0.00 0.00
9:53 am 09:53 Partly Cloudy 66 18.9 50 10 56 56 W 17 28 29.79 1009 10 16 0.00 0.00
10:53 am 10:53 Cloudy 66 18.9 52 11.1 61 61 WNW 15 24 29.79 1009 10 16 0.00 0.00
11:53 am 11:53 Mostly Cloudy 69 20.6 53 11.7 57 57 NW 17 28 29.79 1009 10 16 0.00 0.00
12:53 pm 12:53 Mostly Cloudy 69 20.6 52 11.1 55 55 NW 21 33 29.79 1009 10 16 0.00 0.00
1:53 pm 13:53 Mostly Cloudy 72 22.2 50 10 46 46 NW 15 24 29.79 1009 10 16 0.00 0.00
2:53 pm 14:53 Mostly Cloudy 73 22.8 51 10.6 46 46 NW 20 31 29.79 1009 10 16 0.00 0.00
3:53 pm 15:53 Mostly Cloudy 72 22.2 50 10 46 46 NW 15 24 29.79 1009 10 16 0.00 0.00
4:53 pm 16:53 Mostly Cloudy 73 22.8 53 11.7 50 50 WNW 15 24 29.80 1009 10 16 0.00 0.00
5:53 pm 17:53 Mostly Cloudy 70 21.1 52 11.1 53 53 WNW 16 26 29.82 1010 10 16 0.00 0.00
6:53 pm 18:53 Mostly Cloudy 69 20.6 50 10 51 51 WNW 17 28 29.84 1010 10 16 0.00 0.00
7:53 pm 19:53 Mostly Cloudy 67 19.4 49 9.4 53 53 NW 18 30 29.85 1011 10 16 0.00 0.00
8:53 pm 20:53 Mostly Cloudy 66 18.9 50 10 56 56 WNW 20 31 29.87 1012 10 16 0.00 0.00
9:53 pm 21:53 Mostly Cloudy 65 18.3 49 9.4 56 56 NW 13 20 29.91 1013 10 16 0.00 0.00
10:53 pm 22:53 Mostly Cloudy 64 17.8 48 8.9 56 56 NW 17 28 29.93 1013 10 16 0.00 0.00
11:53 pm 23:53 Mostly Cloudy 62 16.7 48 8.9 60 60 NW 8 13 29.94 1014 10 16 0.00 0.00

Powered by AerisWeather